Weather History for Monterey, CA

Change the Weather History Date:

Saturday, March 10, 2012

  Actual Average Record
Temperature  
Mean Temperature 50 °F 53 °F  
Max Temperature 58 °F 61 °F 74 °F (2005)
Min Temperature 42 °F 46 °F 36 °F (1999)
Degree Days  
Heating Degree Days 15    
Month to date heating degree days 135  
Since 1 July heating degree days 2278  
Cooling Degree Days 0    
Month to date cooling degree days 0  
Year to date cooling degree days 0  
Moisture  
Dew Point 43 °F    
Average Humidity 74    
Maximum Humidity 86    
Minimum Humidity 62    
Precipitation  
Precipitation T in - 0.22 in (1949)
Month to date precipitation 0.03  
Year to date precipitation 2.02  
Since 1 July precipitation 5.82  
Sea Level Pressure  
Sea Level Pressure 30.11 in    
Wind  
Wind Speed 7 mph (WSW)    
Max Wind Speed 13 mph    
Max Gust Speed 16 mph    
Visibility 10 miles    
Events Rain    
T = Trace of Precipitation, MM = Missing Value Source: NWS Daily Summary

Daily Weather History Graph

Daily Weather History Graph

Search for Another Location

Airport:

Trip Planner

Search our weather history database for the weather conditions in past years. The results will help you decide how hot, cold, wet, or windy it might be!

Date:

Astronomy

Mar. 10, 2012 Rise Set
Actual Time 6:24 AM PST 6:10 PM PST
Civil Twilight 5:58 AM PST 6:36 PM PST
Nautical Twilight 5:28 AM PST 7:06 PM PST
Astronomical Twilight 4:58 AM PST 7:36 PM PST
Moon 9:22 PM PST (3/10) 7:29 AM PST (3/10)
Length of Visible Light 12h 37m
Length of Day
11h 46m
Waning Gibbous, 92% of the Moon is Illuminated
Mar 10
Waning Gibbous
Mar 14
Last Quarter
Mar 22
New
Mar 30
First Quarter
Apr 6
Full

Hourly Weather History & Observations

Time (PST) Temp. Windchill Dew Point Humidity Pressure Visibility Wind Dir Wind Speed Gust Speed Precip Events Conditions
12:54 AM 42.1 °F 39.2 °F 34.0 °F 73% 30.18 in 10.0 mi ESE 4.6 mph - N/A   Clear
1:36 AM 44.6 °F 40.7 °F 39.2 °F 81% 30.15 in 10.0 mi SW 6.9 mph - N/A   Scattered Clouds
1:46 AM 46.4 °F 44.3 °F 42.8 °F 87% 30.15 in 10.0 mi SSW 4.6 mph - N/A   Mostly Cloudy
1:54 AM 46.9 °F - 43.0 °F 86% 30.19 in 10.0 mi SSW 4.6 mph - N/A   Overcast
2:54 AM 48.0 °F - 43.0 °F 83% 30.19 in 10.0 mi WSW 6.9 mph - N/A   Overcast
3:54 AM 48.0 °F - 42.1 °F 80% 30.17 in 10.0 mi SW 6.9 mph - N/A   Overcast
4:04 AM 48.2 °F - 42.8 °F 82% 30.13 in 10.0 mi Calm Calm - N/A   Overcast
4:54 AM 46.9 °F - 39.9 °F 77% 30.15 in 10.0 mi South 4.6 mph - N/A   Overcast
5:20 AM 44.6 °F 41.4 °F 37.4 °F 76% 30.11 in 10.0 mi SSW 5.8 mph - N/A   Scattered Clouds
5:33 AM 46.4 °F 42.9 °F 39.2 °F 76% 30.11 in 10.0 mi South 6.9 mph - N/A   Mostly Cloudy
5:54 AM 46.9 °F - 41.0 °F 80% 30.14 in 10.0 mi South 6.9 mph - N/A   Overcast
6:41 AM 46.4 °F 42.9 °F 39.2 °F 76% 30.10 in 10.0 mi SSW 6.9 mph - N/A   Scattered Clouds
6:54 AM 46.9 °F - 41.0 °F 80% 30.15 in 10.0 mi SW 6.9 mph - N/A   Scattered Clouds
7:01 AM 48.2 °F - 41.0 °F 76% 30.11 in 10.0 mi SW 4.6 mph - N/A   Mostly Cloudy
7:54 AM 48.0 °F - 42.1 °F 80% 30.17 in 8.0 mi West 4.6 mph - N/A   Overcast
8:26 AM 48.2 °F - 42.8 °F 82% 30.12 in 9.0 mi Calm Calm - N/A   Mostly Cloudy
8:33 AM 48.2 °F - 42.8 °F 82% 30.12 in 9.0 mi Calm Calm - N/A   Scattered Clouds
8:54 AM 50.0 °F - 42.1 °F 74% 30.17 in 10.0 mi Calm Calm - N/A   Partly Cloudy
9:54 AM 51.1 °F - 43.0 °F 74% 30.17 in 10.0 mi West 5.8 mph - N/A   Clear
10:54 AM 51.1 °F - 43.0 °F 74% 30.17 in 9.0 mi West 10.4 mph - N/A   Scattered Clouds
11:07 AM 50.0 °F - 42.8 °F 76% 30.12 in 9.0 mi West 6.9 mph - N/A   Mostly Cloudy
11:17 AM 51.8 °F - 42.8 °F 71% 30.12 in 10.0 mi WNW 6.9 mph - N/A   Scattered Clouds
11:54 AM 52.0 °F - 42.1 °F 69% 30.15 in 10.0 mi West 9.2 mph - N/A   Clear
12:41 PM 53.6 °F - 42.8 °F 67% 30.10 in 10.0 mi WNW 10.4 mph - N/A   Mostly Cloudy
12:54 PM 54.0 °F - 44.1 °F 69% 30.13 in 10.0 mi West 6.9 mph - N/A   Mostly Cloudy
1:03 PM 53.6 °F - 44.6 °F 72% 30.09 in 10.0 mi West 9.2 mph - N/A   Scattered Clouds
1:54 PM 55.0 °F - 44.1 °F 67% 30.10 in 10.0 mi Variable 4.6 mph - N/A   Clear
2:54 PM 57.0 °F - 45.0 °F 64% 30.09 in 10.0 mi West 9.2 mph - N/A   Clear
3:54 PM 55.9 °F - 46.0 °F 69% 30.08 in 10.0 mi WSW 9.2 mph 16.1 mph N/A   Partly Cloudy
4:14 PM 55.4 °F - 46.4 °F 72% 30.04 in 10.0 mi WSW 9.2 mph - N/A   Mostly Cloudy
4:54 PM 55.9 °F - 46.0 °F 69% 30.08 in 10.0 mi WSW 6.9 mph - N/A   Mostly Cloudy
5:12 PM 55.4 °F - 46.4 °F 72% 30.04 in 10.0 mi WSW 8.1 mph - N/A   Mostly Cloudy
5:54 PM 53.1 °F - 46.0 °F 77% 30.08 in 10.0 mi WSW 9.2 mph - N/A   Overcast
6:23 PM 51.8 °F - 46.4 °F 82% 30.05 in 10.0 mi WSW 9.2 mph - N/A   Overcast
6:54 PM 51.1 °F - 46.0 °F 83% 30.09 in 10.0 mi West 9.2 mph - N/A   Overcast
7:54 PM 50.0 °F - 46.9 °F 89% 30.10 in 3.0 mi West 5.8 mph - 0.00 in Rain Light Rain
8:24 PM 50.0 °F - 46.4 °F 87% 30.06 in 10.0 mi WSW 5.8 mph - 0.00 in   Overcast
8:43 PM 50.0 °F - 44.6 °F 82% 30.06 in 10.0 mi SW 5.8 mph - 0.00 in   Overcast
8:54 PM 50.0 °F - 45.0 °F 83% 30.10 in 10.0 mi SW 4.6 mph - 0.00 in   Overcast
9:01 PM 50.0 °F - 44.6 °F 82% 30.06 in 10.0 mi SSW 4.6 mph - N/A   Overcast
9:54 PM 48.9 °F - 44.1 °F 83% 30.10 in 10.0 mi SSW 5.8 mph - N/A   Overcast
10:51 PM 50.0 °F - 44.6 °F 82% 30.06 in 10.0 mi WSW 5.8 mph - N/A   Overcast
10:54 PM 50.0 °F - 44.1 °F 80% 30.10 in 10.0 mi WSW 5.8 mph - N/A   Overcast
11:54 PM 48.9 °F - 41.0 °F 74% 30.10 in 10.0 mi West 8.1 mph - N/A   Overcast